Location: Jesenik
(50.2330°N, 17.2000°E)
Time: 06:32:05
(UTC+02:00)

ISS - Pass Details

Date: 25 March 2019
Orbit: 408 x 410 km, 51.6° (Epoch: 22 April)

Event Time Altitude Azimuth Distance (km) Brightness Sun altitude
Rises 18:37:42 0° 223° (SW) 2,327 0.5 -5.0°
Reaches altitude 10° 18:39:55 10° 212° (SSW) 1,469 -0.7 -5.3°
Maximum altitude 18:42:53 32° 148° (SSE) 734 -2.9 -5.8°
Drops below altitude 10° 18:45:52 10° 84° (E) 1,474 -1.6 -6.3°
Enters shadow 18:46:27 - 80° (E) 1,700 -1.3 -6.4°
